(120347) Salacia
ephemeris date magn radius delta ra dec elong phase
Today31 Aug 202520.845.309 AU44.543 AU00h01m+26°51'138.9°0.8°
Opposition3 Oct 202520.845.315 AU44.402 AU23h58m+26°40'155.5°0.5°
(120347) Salacia - 2025-08-31
astro.vanbuitenen.nl


 
-1 year
-1 month
-1 day
Now
+1 day
+1 month
+1 year

The interactive orbit chart above shows the body's path through the solar system and its position at the given date. Green and blue lines are shown perpendicular to the ecliptic plane: Green if the path is above the ecliptic plane, blue if it is below. (Left-click and drag to rotate the view; Right-click and drag to move the view; Use scroll wheel to zoom in our out.)

The orbital elements of Salacia are:

            e (Eccentricity)                : 0.1023366
            a (Semimajor axis)              : 42.1756119
            i (Inclination)                 : 23.92716
            Ω (Longitude of ascending node) : 280.25298
            ω (Argument of perihelion)      : 310.11828
            M (Mean anomaly)                : 132.09199
            Epoch                           : 2025 May 05

            L (Longitude of perihelion)     : 232.92425
            B (Latitude of perihelion)      : -18.06824
            P (Orbital period in years)     : 273.90            
        

The light curve chart below shows the estimated development of the minor planet's magnitude.


The all-sky chart below shows the path of the minor planet over the same period as the light curve. The current position is marked yellow.





The following chart shows the path of the minor planet in the next few days. The field of view is optimized for (~10x50) binoculars and finderscopes. A more printer-friendly version of the same chart can be found below.




Ephemerides:
Date       Time       RA (2000)    DEC (2000)    delta   radius  elong  phase   PA    magn
2025-08-31 00:00 UT   00 01 12.7   +26 51 05    44.543   45.309  138.9    0.8   213   20.8 
2025-08-31 20:53 UT   00 01 09.0   +26 50 57    44.536   45.309  139.6    0.8   212   20.8 
2025-09-01 00:00 UT   00 01 08.4   +26 50 56    44.535   45.309  139.7    0.8   212   20.8 
2025-09-02 00:00 UT   00 01 04.1   +26 50 47    44.527   45.309  140.4    0.8   211   20.8 
2025-09-03 00:00 UT   00 00 59.8   +26 50 38    44.519   45.309  141.2    0.8   210   20.8 
2025-09-04 00:00 UT   00 00 55.4   +26 50 27    44.511   45.310  141.9    0.8   209   20.8 
2025-09-05 00:00 UT   00 00 51.0   +26 50 16    44.504   45.310  142.6    0.8   208   20.8 
2025-09-06 00:00 UT   00 00 46.6   +26 50 04    44.497   45.310  143.4    0.8   207   20.8 
2025-09-07 00:00 UT   00 00 42.2   +26 49 52    44.490   45.310  144.1    0.7   205   20.8 
2025-09-08 00:00 UT   00 00 37.7   +26 49 38    44.484   45.310  144.8    0.7   204   20.8 
2025-09-09 00:00 UT   00 00 33.2   +26 49 24    44.477   45.311  145.4    0.7   203   20.8 
2025-09-10 00:00 UT   00 00 28.6   +26 49 09    44.471   45.311  146.1    0.7   202   20.8 
2025-09-11 00:00 UT   00 00 24.1   +26 48 54    44.465   45.311  146.8    0.7   200   20.8 
2025-09-12 00:00 UT   00 00 19.5   +26 48 37    44.460   45.311  147.4    0.7   199   20.8 
2025-09-13 00:00 UT   00 00 14.9   +26 48 21    44.454   45.311  148.0    0.7   197   20.8 
2025-09-14 00:00 UT   00 00 10.3   +26 48 03    44.449   45.311  148.6    0.7   196   20.8 
2025-09-15 00:00 UT   00 00 05.7   +26 47 45    44.444   45.312  149.2    0.7   194   20.8 
2025-09-16 00:00 UT   00 00 01.1   +26 47 26    44.440   45.312  149.8    0.6   193   20.8 
2025-09-17 00:00 UT   23 59 56.4   +26 47 06    44.435   45.312  150.4    0.6   191   20.8 
2025-09-18 00:00 UT   23 59 51.7   +26 46 46    44.431   45.312  150.9    0.6   189   20.8 
2025-09-19 00:00 UT   23 59 47.1   +26 46 24    44.428   45.312  151.4    0.6   188   20.8 
2025-09-20 00:00 UT   23 59 42.4   +26 46 03    44.424   45.312  151.9    0.6   186   20.8 
2025-09-21 00:00 UT   23 59 37.7   +26 45 40    44.421   45.313  152.4    0.6   184   20.8 
2025-09-22 00:00 UT   23 59 33.0   +26 45 17    44.418   45.313  152.8    0.6   182   20.8 
2025-09-23 00:00 UT   23 59 28.3   +26 44 54    44.415   45.313  153.2    0.6   180   20.8 
2025-09-24 00:00 UT   23 59 23.7   +26 44 29    44.412   45.313  153.6    0.6   178   20.8 
2025-09-25 00:00 UT   23 59 19.0   +26 44 05    44.410   45.313  153.9    0.6   176   20.8 
2025-09-26 00:00 UT   23 59 14.3   +26 43 39    44.408   45.313  154.3    0.6   174   20.8 
2025-09-27 00:00 UT   23 59 09.6   +26 43 13    44.406   45.314  154.5    0.5   171   20.8 
2025-09-28 00:00 UT   23 59 04.9   +26 42 46    44.405   45.314  154.8    0.5   169   20.8 
2025-09-29 00:00 UT   23 59 00.3   +26 42 19    44.404   45.314  155.0    0.5   167   20.8 
2025-09-30 00:00 UT   23 58 55.6   +26 41 51    44.403   45.314  155.2    0.5   164   20.8 


    Terminology:
            
    delta:  distance between minor planet and earth in AU
    radius: distance between minor planet and sun in AU
    magn:   magnitude (brightness) estimate    
    ra:     right ascension in hours (24h = 360deg)
    dec:    declination in degrees
    elong:  elongation in degrees (angle sun-earth-minor planet)    
    phase:  phase angle in degrees (angle sun-minor planet-earth)        
    AU:     Astronomical Unit (mean distance between earth and sun: 149597870.7 km
    

Orbital elements provided by the MPC (Minor Planet Center).
Calculations by a modified version of AAPlus, a C# implementation of the AA+ project by PJ Naughter from the algorithms presented in the book "Astronomical Algorithms" by Jean Meeus.
NGC2000 dso catalog and star labels from VizieR as provided by the Strasbourg astronomical Data Center.
Tycho2 catalog from the ESO archive.